Snowfall_Accumulation
0.0 0.0 0.0 0.0 0.0 0.0 0.0 0.0 0.0 0.0 0.0 0.0 0.0 0.0 0.0 0.0 0.0 0.0 0.0 0.0 0.0 0.0
0.0 0.0 0.0 0.0 0.0 0.0 0.0 0.0 0.0 0.0 0.0 0.0 0.0 0.0 0.0 0.0 0.0 0.0 0.0 0.0 0.0 0.0
0.0 0.0 0.0 0.0 0.0 0.0 0.0 0.0 0.0 0.0 0.0 0.0 0.0 0.0 0.0 0.0 0.0 0.0 0.0 0.0 0.0 0.0
0.0 0.0 0.0 0.0 0.0 0.0 0.0 0.0 0.0 0.0 0.0 0.0 0.0 0.0 0.0 0.0 0.0 0.0 0.0 0.0 0.0 0.0
0.0 0.0 0.0 0.0 0.0 0.0 0.0 0.0 0.0 0.0 0.0 0.0 0.0 0.0 0.0 0.0 0.0 0.0 0.0 0.0 0.0 0.0
0.0 0.0 0.0 0.0 0.0 0.0 0.0 0.0 0.0 0.0 0.0 0.0 0.0 0.0 0.0 0.0 0.0 0.0 0.0 0.0 0.0 0.0
0.0 0.0 0.0 0.0 0.0 0.0 0.0 0.0 0.0 0.0 0.0 0.0 0.0 0.0 0.0 0.0 0.0 0.0 0.0 0.0 0.0 0.0
0.0 0.0 0.0 0.0 0.0 0.0 0.0 0.0 0.0 0.0 0.0 0.0 0.1 0.0 0.1 0.0 0.1 0.0 0.0 0.0 0.0 0.0
0.0 0.0 0.0 0.0 0.0 0.0 0.0 0.0 0.0 0.0 0.1 0.1 0.0 nan nan 0.0 0.0 0.0 0.0 0.0 0.0 0.0
0.0 0.0 0.0 0.0 0.0 0.0 0.0 0.0 0.0 0.1 0.1 0.1 0.1 nan nan nan 0.2 0.1 0.2 0.1 0.1 0.1
0.0 0.1 0.0 0.1 0.1 0.1 0.1 0.2 0.2 0.2 0.4 0.2 0.2 nan nan nan 0.4 1.1 1.7 2.2 2.2 1.3
0.1 0.1 0.1 0.2 1.2 0.3 0.1 0.2 0.9 1.9 1.1 1.3 3.8 nan nan 1.1 1.1 2.9 3.6 4.1 4.4 5.1
0.1 0.1 0.8 0.1 0.2 1.2 0.2 0.4 1.2 0.9 1.6 nan 2.8 nan nan nan 5.0 7.1 8.4 5.1 4.3 nan
0.1 0.1 0.1 0.2 0.2 0.2 0.6 0.6 1.5 1.7 2.5 2.4 2.3 3.4 nan nan 2.1 5.2 7.6 8.5 9.5 8.6
Water_Equivalent
0.00 0.00 0.00 0.00 0.00 0.00 0.00 0.00 0.00 0.00 0.00 0.00 0.00 0.00 0.00 0.00 0.00 0.00 0.00 0.00 0.00 0.00
0.00 0.00 0.00 0.00 0.00 0.00 0.00 0.00 0.00 0.00 0.00 0.00 0.00 0.00 0.00 0.00 0.00 0.00 0.00 0.00 0.00 0.00
0.00 0.00 0.00 0.00 0.00 0.00 0.00 0.00 0.00 0.00 0.00 0.00 0.00 0.00 0.00 0.00 0.00 0.00 0.00 0.00 0.00 0.00
0.00 0.00 0.00 0.00 0.00 0.00 0.00 0.00 0.00 0.00 0.00 0.00 0.00 0.00 0.00 0.00 0.00 0.00 0.00 0.00 0.00 0.00
0.00 0.00 0.00 0.00 0.00 0.00 0.00 0.00 0.00 0.00 0.00 0.00 0.00 0.00 0.00 0.00 0.00 0.00 0.00 0.00 0.00 0.00
0.00 0.00 0.00 0.00 0.00 0.00 0.00 0.00 0.00 0.00 0.00 0.00 0.00 0.00 0.00 0.00 0.00 0.00 0.00 0.00 0.00 0.00
0.00 0.00 0.00 0.00 0.00 0.00 0.00 0.00 0.00 0.00 0.00 0.00 0.00 0.00 0.00 0.00 0.00 0.00 0.00 0.00 0.00 0.00
0.00 0.00 0.00 0.00 0.00 0.00 0.00 0.00 0.00 0.00 0.00 0.00 0.01 0.00 0.02 0.00 0.01 0.00 0.00 0.00 0.00 0.00
0.00 0.00 0.00 0.00 0.00 0.00 0.00 0.00 0.00 0.01 0.01 0.02 0.00 nan nan 0.01 0.00 0.00 0.00 0.01 0.00 0.00
0.00 0.00 0.01 0.00 0.00 0.00 0.00 0.00 0.01 0.03 0.02 0.04 0.03 nan nan nan 0.05 0.03 0.04 0.03 0.02 0.01
0.01 0.02 0.00 0.02 0.03 0.03 0.02 0.05 0.05 0.04 0.10 0.04 0.06 nan nan nan 0.10 0.28 0.38 0.50 0.47 0.27
0.03 0.03 0.02 0.05 0.40 0.08 0.03 0.04 0.24 0.52 0.28 0.34 1.09 nan nan 0.30 0.28 0.69 0.74 0.86 0.94 1.02
0.04 0.04 0.32 0.04 0.05 0.44 0.05 0.12 0.34 0.22 0.42 nan 0.77 nan nan nan 1.48 1.55 1.76 1.09 1.01 nan
0.02 0.03 0.04 0.08 0.07 0.08 0.22 0.21 0.42 0.48 0.69 0.68 0.68 0.99 nan nan 0.57 1.35 1.75 1.91 2.07 2.03
SL_Ratio
nan nan nan nan nan nan nan nan nan nan nan nan nan nan nan nan nan nan nan nan nan nan
nan nan nan nan nan nan nan nan nan nan nan nan nan nan nan nan nan nan nan nan nan nan
nan nan nan nan nan nan nan nan nan nan nan nan nan nan nan nan nan nan nan nan nan nan
nan nan nan nan nan nan nan nan nan nan nan nan nan nan nan nan nan nan nan nan nan nan
nan nan nan nan nan nan nan nan nan nan nan nan nan nan nan nan nan nan nan nan nan nan
nan nan nan nan nan nan nan nan nan nan nan nan nan nan nan nan nan nan nan nan nan nan
nan nan nan nan nan nan nan nan nan nan nan nan nan nan nan nan 10.0 4.0 nan nan nan nan
nan nan nan nan nan nan nan nan nan nan 5.0 3.8 3.9 4.4 4.1 5.0 4.6 5.0 nan nan nan nan
nan nan nan nan nan nan nan nan 3.3 3.7 4.0 4.4 nan nan nan 4.3 4.4 nan nan 4.4 5.0 10.0
0.0 nan 3.1 nan nan 2.7 3.3 4.0 3.9 3.8 4.0 3.9 3.7 nan nan nan 3.7 4.0 4.3 4.4 4.7 4.8
2.9 3.2 3.3 3.1 3.2 3.2 3.4 3.5 3.7 3.9 3.6 3.8 3.6 nan nan nan 3.8 4.0 4.5 4.4 4.7 4.9
3.1 3.4 3.2 3.5 3.1 3.2 3.4 3.8 3.8 3.6 4.0 3.8 3.5 nan nan 3.6 3.9 4.2 4.8 4.7 4.7 4.9
2.8 2.9 2.7 2.9 3.3 2.7 3.2 3.5 3.5 3.9 3.7 nan 3.6 nan nan nan 3.4 4.6 4.8 4.7 4.3 nan
2.8 2.8 2.7 2.6 2.5 2.9 3.0 3.0 3.5 3.5 3.6 3.6 3.4 3.5 nan nan 3.7 3.9 4.4 4.5 4.6 4.3